Tracking 30995 objects as of 6-Jul-2025
HD Live streaming from Space Station
objects crossing your sky now

OBJECT W

Track OBJECT W now!
10-day predictions


NORAD ID: 56866
Int'l Code: 2023-081W
Perigee: 506.1 km
Apogee: 524.7 km
Inclination: 97.3 °
Period: 94.8 minutes
Semi major axis: 6886 km
RCS: Unknown
Launch date: June 7, 2023
Source: (TBD)
Launch site: Jiuquan Satellite Launch Center, China (JSC)
Your satellite tracking list
Your tracking list is empty




NASA's NSSDC Master Catalog

Two Line Element Set (TLE):
1 56866U 23081W   25186.83783647  .00005299  00000-0  25444-3 0  9990
2 56866  97.3356 254.8502 0013522 144.5351 215.6785 15.19190222115348
Source of the keplerian elements: AFSPC